Location: Chemnitz
(49.5500°N, 11.5830°E)
Time: 12:15:14
(UTC+01:00)

ISS - Pass Details

Date: 12 November 2017
Orbit: 401 x 407 km, 51.6° (Epoch: 25 November)

Event Time Altitude Azimuth Distance (km) Brightness Sun altitude
Exits shadow 05:52:57 30° 283° (WNW) 751 -3.1 -14.2°
Maximum altitude 05:54:24 77° 202° (SSW) 416 -3.9 -14.0°
Drops below altitude 10° 05:57:39 10° 115° (ESE) 1,453 0.3 -13.4°
Sets 05:59:44 0° 114° (ESE) 2,310 1.8 -13.1°
